Location: Kershaw
(34.5481°N, 80.5823°W)
Time: 03:34:29
(UTC+00:00)

Altair - Pass Details

Date: 12 October 2022
Orbit: 1501 x 1682 km, 47.2° (Epoch: 01 December)

Event Time Altitude Azimuth Distance (km) Brightness Sun altitude
Rises 08:41:05 0° 257° (WSW) 4,699 - -34.4°
Reaches altitude 10° 08:44:14 10° 262° (W) 3,740 - -33.7°
Exits shadow 08:52:08 50° 313° (NW) 1,962 7.7 -32.2°
Maximum altitude 08:53:28 53° 338° (NNW) 1,913 7.8 -31.9°
Drops below altitude 10° 09:03:06 10° 53° (NE) 3,886 10.4 -30.0°
Sets 09:06:26 0° 59° (ENE) 4,894 11.2 -29.3°
